| time (UTC) | temp F | wind direction | speed MPH | gust MPH | rain 1hr in | rain 24hr in | rain mn in | humidity % | barometer mb |
| 20260505082446 | 98 | 56 | 2.0 | 3.0 | 0.00 | 0.00 | 0.00 | 45 | 1007.0 |
| 20260505081947 | 97 | 171 | 4.0 | 4.0 | 0.00 | 0.00 | 0.00 | 44 | 1007.0 |
| 20260505080946 | 97 | 23 | 3.0 | 3.0 | 0.00 | 0.00 | 0.00 | 46 | 1008.0 |
| 20260505080447 | 97 | 147 | 3.0 | 3.0 | 0.00 | 0.00 | 0.00 | 46 | 1007.0 |
| 20260505075947 | 95 | 160 | 5.0 | 7.0 | 0.00 | 0.00 | 0.00 | 49 | 1008.0 |
| 20260505075447 | 96 | 189 | 4.0 | 7.0 | 0.00 | 0.00 | 0.00 | 48 | 1008.0 |
| 20260505074946 | 95 | 36 | 1.0 | 2.0 | 0.00 | 0.00 | 0.00 | 48 | 1007.0 |
| 20260505074446 | 96 | 127 | 2.0 | 2.0 | 0.00 | 0.00 | 0.00 | 48 | 1008.0 |
| 20260505073946 | 96 | 101 | 2.0 | 2.0 | 0.00 | 0.00 | 0.00 | 49 | 1008.0 |
| 20260505073448 | 98 | 218 | 1.0 | 1.0 | 0.00 | 0.00 | 0.00 | 47 | 1008.0 |
| 20260505072946 | 95 | 153 | 0.0 | 0.0 | 0.00 | 0.00 | 0.00 | 49 | 1008.0 |
| 20260505072446 | 95 | 144 | 3.0 | 4.0 | 0.00 | 0.00 | 0.00 | 50 | 1008.0 |
| 20260505071947 | 97 | 140 | 2.0 | 3.0 | 0.00 | 0.00 | 0.00 | 47 | 1008.0 |
| 20260505071447 | 97 | 82 | 0.0 | 0.0 | 0.00 | 0.00 | 0.00 | 47 | 1008.0 |
| 20260505070947 | 96 | 357 | 1.0 | 2.0 | 0.00 | 0.00 | 0.00 | 48 | 1009.0 |
| 20260505070447 | 97 | 355 | 3.0 | 3.0 | 0.00 | 0.00 | 0.00 | 48 | 1009.0 |
| 20260505065947 | 97 | 271 | 1.0 | 1.0 | 0.00 | 0.00 | 0.00 | 47 | 1009.0 |
| 20260505065446 | 97 | 177 | 2.0 | 2.0 | 0.00 | 0.00 | 0.00 | 49 | 1009.0 |
| 20260505064947 | 96 | 282 | 1.0 | 1.0 | 0.00 | 0.00 | 0.00 | 49 | 1009.0 |
| 20260505064447 | 94 | 174 | 3.0 | 3.0 | 0.00 | 0.00 | 0.00 | 51 | 1009.0 |
| 20260505063948 | 93 | 158 | 3.0 | 3.0 | 0.00 | 0.00 | 0.00 | 52 | 1009.0 |
| 20260505063446 | 93 | 156 | 4.0 | 7.0 | 0.00 | 0.00 | 0.00 | 54 | 1009.0 |
| 20260505062946 | 94 | 183 | 2.0 | 3.0 | 0.00 | 0.00 | 0.00 | 52 | 1010.0 |
| 20260505062446 | 93 | 27 | 0.0 | 1.0 | 0.00 | 0.00 | 0.00 | 53 | 1009.0 |
| 20260505061946 | 92 | 31 | 1.0 | 2.0 | 0.00 | 0.00 | 0.00 | 53 | 1010.0 |
| 20260505061446 | 91 | 78 | 2.0 | 2.0 | 0.00 | 0.00 | 0.00 | 55 | 1010.0 |
| 20260505060946 | 91 | 167 | 3.0 | 3.0 | 0.00 | 0.00 | 0.00 | 56 | 1010.0 |
| 20260505060446 | 91 | 142 | 3.0 | 6.0 | 0.00 | 0.00 | 0.00 | 57 | 1010.0 |
| 20260505055946 | 94 | 153 | 2.0 | 3.0 | 0.00 | 0.00 | 0.00 | 54 | 1010.0 |
| 20260505055447 | 93 | 235 | 2.0 | 2.0 | 0.00 | 0.00 | 0.00 | 53 | 1010.0 |
| 20260505054947 | 92 | 319 | 1.0 | 1.0 | 0.00 | 0.00 | 0.00 | 56 | 1010.0 |
| 20260505054446 | 92 | 334 | 1.0 | 2.0 | 0.00 | 0.00 | 0.00 | 54 | 1010.0 |
| 20260505053948 | 91 | 170 | 4.0 | 6.0 | 0.00 | 0.00 | 0.00 | 57 | 1010.0 |
| 20260505053447 | 91 | 227 | 1.0 | 2.0 | 0.00 | 0.00 | 0.00 | 58 | 1010.0 |
| 20260505052946 | 92 | 95 | 1.0 | 1.0 | 0.00 | 0.00 | 0.00 | 57 | 1010.0 |
| 20260505052446 | 92 | 21 | 0.0 | 1.0 | 0.00 | 0.00 | 0.00 | 55 | 1010.0 |
| 20260505051946 | 91 | 313 | 0.0 | 0.0 | 0.00 | 0.00 | 0.00 | 56 | 1010.0 |
| 20260505051446 | 92 | 239 | 2.0 | 2.0 | 0.00 | 0.00 | 0.00 | 55 | 1010.0 |
| 20260505050947 | 91 | 219 | 0.0 | 0.0 | 0.00 | 0.00 | 0.00 | 56 | 1011.0 |
| 20260505050447 | 90 | 259 | 2.0 | 2.0 | 0.00 | 0.00 | 0.00 | 58 | 1011.0 |
| 20260505041447 | 88 | 146 | 2.0 | 2.0 | 0.00 | 0.00 | 0.00 | 61 | 1011.0 |
| 20260505040946 | 86 | 142 | 1.0 | 2.0 | 0.00 | 0.00 | 0.00 | 64 | 1011.0 |
| 20260505040446 | 86 | 86 | 1.0 | 1.0 | 0.00 | 0.00 | 0.00 | 64 | 1011.0 |
| 20260505035947 | 86 | 145 | 1.0 | 1.0 | 0.00 | 0.00 | 0.00 | 65 | 1011.0 |
| 20260505035447 | 86 | 120 | 2.0 | 2.0 | 0.00 | 0.00 | 0.00 | 66 | 1011.0 |
| 20260505034946 | 87 | 98 | 1.0 | 2.0 | 0.00 | 0.00 | 0.00 | 64 | 1011.0 |
| 20260505034447 | 87 | 113 | 1.0 | 1.0 | 0.00 | 0.00 | 0.00 | 64 | 1011.0 |
| 20260505033947 | 86 | 73 | 1.0 | 1.0 | 0.00 | 0.00 | 0.00 | 65 | 1011.0 |
| 20260505033446 | 85 | 138 | 0.0 | 0.0 | 0.00 | 0.00 | 0.00 | 65 | 1011.0 |
| 20260505032946 | 84 | 168 | 2.0 | 3.0 | 0.00 | 0.00 | 0.00 | 67 | 1011.0 |
| 20260505032447 | 85 | 222 | 1.0 | 2.0 | 0.00 | 0.00 | 0.00 | 67 | 1011.0 |
| 20260505031947 | 85 | 295 | 0.0 | 1.0 | 0.00 | 0.00 | 0.00 | 66 | 1011.0 |
| 20260505031446 | 85 | 294 | 1.0 | 2.0 | 0.00 | 0.00 | 0.00 | 67 | 1011.0 |
| 20260505030953 | 84 | 251 | 1.0 | 1.0 | 0.00 | 0.00 | 0.00 | 67 | 1011.0 |
| 20260505030446 | 85 | 239 | 1.0 | 1.0 | 0.00 | 0.00 | 0.00 | 67 | 1011.0 |
| 20260505025946 | 85 | 291 | 0.0 | 0.0 | 0.00 | 0.00 | 0.00 | 67 | 1011.0 |
| 20260505025446 | 84 | 284 | 1.0 | 1.0 | 0.00 | 0.00 | 0.00 | 69 | 1010.0 |
| 20260505024946 | 84 | 260 | 2.0 | 2.0 | 0.00 | 0.00 | 0.00 | 68 | 1011.0 |
| 20260505024446 | 83 | 265 | 1.0 | 1.0 | 0.00 | 0.00 | 0.00 | 70 | 1011.0 |
| 20260505023946 | 83 | 336 | 1.0 | 1.0 | 0.00 | 0.00 | 0.00 | 70 | 1010.0 |
| 20260505023446 | 83 | 355 | 0.0 | 0.0 | 0.00 | 0.00 | 0.00 | 70 | 1010.0 |
| 20260505022946 | 83 | 310 | 1.0 | 1.0 | 0.00 | 0.00 | 0.00 | 70 | 1011.0 |
| 20260505022446 | 83 | 282 | 2.0 | 2.0 | 0.00 | 0.00 | 0.00 | 71 | 1011.0 |
| 20260505021946 | 82 | 270 | 1.0 | 2.0 | 0.00 | 0.00 | 0.00 | 71 | 1011.0 |
| 20260505021446 | 82 | 264 | 3.0 | 3.0 | 0.00 | 0.00 | 0.00 | 71 | 1010.0 |
| 20260505020946 | 82 | 274 | 1.0 | 1.0 | 0.00 | 0.00 | 0.00 | 73 | 1010.0 |
| 20260505020446 | 82 | 340 | 0.0 | 0.0 | 0.00 | 0.00 | 0.00 | 74 | 1011.0 |
| 20260505015946 | 81 | 340 | 0.0 | 1.0 | 0.00 | 0.00 | 0.00 | 75 | 1011.0 |
| 20260505015446 | 81 | 340 | 0.0 | 0.0 | 0.00 | 0.00 | 0.00 | 76 | 1011.0 |
| 20260505014946 | 80 | 340 | 1.0 | 1.0 | 0.00 | 0.00 | 0.00 | 78 | 1011.0 |
| 20260505014446 | 80 | 340 | 1.0 | 2.0 | 0.00 | 0.00 | 0.00 | 78 | 1011.0 |
| 20260505013946 | 80 | 340 | 1.0 | 2.0 | 0.00 | 0.00 | 0.00 | 79 | 1011.0 |
| 20260505013447 | 80 | 340 | 1.0 | 1.0 | 0.00 | 0.00 | 0.00 | 79 | 1011.0 |
| 20260505012949 | 80 | 340 | 0.0 | 0.0 | 0.00 | 0.00 | 0.00 | 79 | 1011.0 |
| 20260505012448 | 79 | 340 | 0.0 | 1.0 | 0.00 | 0.00 | 0.00 | 80 | 1011.0 |
| 20260505011947 | 80 | 340 | 0.0 | 1.0 | 0.00 | 0.00 | 0.00 | 79 | 1010.0 |
| 20260505011449 | 79 | 340 | 1.0 | 1.0 | 0.00 | 0.00 | 0.00 | 80 | 1010.0 |
| 20260505010946 | 79 | 340 | 0.0 | 0.0 | 0.00 | 0.00 | 0.00 | 80 | 1010.0 |
| 20260505010446 | 79 | 340 | 0.0 | 0.0 | 0.00 | 0.00 | 0.00 | 80 | 1010.0 |
| 20260505005946 | 79 | 340 | 1.0 | 1.0 | 0.00 | 0.00 | 0.00 | 81 | 1010.0 |
| 20260505005446 | 79 | 340 | 0.0 | 0.0 | 0.00 | 0.00 | 0.00 | 80 | 1010.0 |
| 20260505004946 | 79 | 339 | 0.0 | 0.0 | 0.00 | 0.00 | 0.00 | 80 | 1010.0 |
| 20260505004447 | 79 | 339 | 0.0 | 0.0 | 0.00 | 0.00 | 0.00 | 80 | 1010.0 |
| 20260505003947 | 79 | 339 | 0.0 | 0.0 | 0.00 | 0.00 | 0.00 | 80 | 1010.0 |
| 20260505003446 | 79 | 339 | 0.0 | 0.0 | 0.00 | 0.00 | 0.00 | 80 | 1010.0 |
| 20260505002946 | 79 | 339 | 0.0 | 0.0 | 0.00 | 0.00 | 0.00 | 80 | 1010.0 |
| 20260505002447 | 79 | 339 | 0.0 | 0.0 | 0.00 | 0.00 | 0.00 | 81 | 1010.0 |
| 20260505001947 | 79 | 339 | 1.0 | 1.0 | 0.00 | 0.00 | 0.00 | 80 | 1010.0 |
| 20260505001447 | 79 | 339 | 0.0 | 1.0 | 0.00 | 0.00 | 0.00 | 80 | 1010.0 |
| 20260505000946 | 79 | 339 | 0.0 | 0.0 | 0.00 | 0.00 | 0.00 | 80 | 1010.0 |
| 20260505000446 | 79 | 340 | 1.0 | 1.0 | 0.00 | 0.00 | 0.00 | 79 | 1010.0 |
| 20260504235946 | 79 | 340 | 1.0 | 1.0 | 0.00 | 0.00 | 0.00 | 80 | 1010.0 |
| 20260504235447 | 79 | 343 | 2.0 | 3.0 | 0.00 | 0.00 | 0.00 | 80 | 1010.0 |
| 20260504234946 | 79 | 352 | 2.0 | 3.0 | 0.00 | 0.00 | 0.00 | 80 | 1010.0 |
| 20260504234447 | 79 | 10 | 3.0 | 3.0 | 0.00 | 0.00 | 0.00 | 80 | 1010.0 |
| 20260504233947 | 79 | 17 | 1.0 | 1.0 | 0.00 | 0.00 | 0.00 | 80 | 1010.0 |
| 20260504233447 | 80 | 136 | 2.0 | 2.0 | 0.00 | 0.00 | 0.00 | 79 | 1010.0 |
| 20260504232946 | 80 | 142 | 0.0 | 1.0 | 0.00 | 0.00 | 0.00 | 76 | 1010.0 |
| 20260504232446 | 80 | 142 | 0.0 | 0.0 | 0.00 | 0.00 | 0.00 | 77 | 1010.0 |
| 20260504231946 | 80 | 142 | 0.0 | 0.0 | 0.00 | 0.00 | 0.00 | 77 | 1010.0 |
| 20260504231447 | 80 | 142 | 0.0 | 0.0 | 0.00 | 0.00 | 0.00 | 77 | 1010.0 |
| 20260504230947 | 80 | 142 | 1.0 | 1.0 | 0.00 | 0.00 | 0.00 | 76 | 1010.0 |
| 20260504230446 | 81 | 142 | 0.0 | 0.0 | 0.00 | 0.00 | 0.00 | 74 | 1010.0 |
| 20260504225947 | 81 | 142 | 0.0 | 0.0 | 0.00 | 0.00 | 0.00 | 74 | 1010.0 |
| 20260504225446 | 81 | 142 | 0.0 | 0.0 | 0.00 | 0.00 | 0.00 | 73 | 1009.0 |
| 20260504224947 | 81 | 142 | 0.0 | 1.0 | 0.00 | 0.00 | 0.00 | 73 | 1009.0 |
| 20260504224451 | 80 | 142 | 0.0 | 0.0 | 0.00 | 0.00 | 0.00 | 74 | 1009.0 |
| 20260504223946 | 80 | 142 | 0.0 | 0.0 | 0.00 | 0.00 | 0.00 | 75 | 1009.0 |
| 20260504223447 | 80 | 142 | 0.0 | 1.0 | 0.00 | 0.00 | 0.00 | 76 | 1009.0 |
| 20260504222946 | 80 | 142 | 1.0 | 1.0 | 0.00 | 0.00 | 0.00 | 76 | 1009.0 |
| 20260504222446 | 80 | 142 | 0.0 | 0.0 | 0.00 | 0.00 | 0.00 | 76 | 1009.0 |
| 20260504221946 | 80 | 142 | 1.0 | 1.0 | 0.00 | 0.00 | 0.00 | 75 | 1009.0 |
| 20260504221446 | 81 | 142 | 1.0 | 1.0 | 0.00 | 0.00 | 0.00 | 73 | 1009.0 |
| 20260504220946 | 81 | 142 | 1.0 | 1.0 | 0.00 | 0.00 | 0.00 | 72 | 1009.0 |
| 20260504220447 | 81 | 142 | 0.0 | 0.0 | 0.00 | 0.00 | 0.00 | 72 | 1009.0 |
| 20260504215946 | 81 | 142 | 0.0 | 0.0 | 0.00 | 0.00 | 0.00 | 72 | 1009.0 |
| 20260504215446 | 81 | 142 | 0.0 | 0.0 | 0.00 | 0.00 | 0.00 | 72 | 1009.0 |
| 20260504214946 | 81 | 142 | 1.0 | 1.0 | 0.00 | 0.00 | 0.00 | 72 | 1009.0 |
| 20260504214447 | 81 | 142 | 0.0 | 0.0 | 0.00 | 0.00 | 0.00 | 72 | 1009.0 |
| 20260504213947 | 81 | 142 | 1.0 | 1.0 | 0.00 | 0.00 | 0.00 | 72 | 1009.0 |
| 20260504213447 | 81 | 142 | 1.0 | 1.0 | 0.00 | 0.00 | 0.00 | 72 | 1009.0 |
| 20260504212946 | 81 | 142 | 0.0 | 0.0 | 0.00 | 0.00 | 0.00 | 72 | 1009.0 |
| 20260504212446 | 81 | 142 | 0.0 | 1.0 | 0.00 | 0.00 | 0.00 | 72 | 1009.0 |
| 20260504211946 | 81 | 142 | 0.0 | 0.0 | 0.00 | 0.00 | 0.00 | 72 | 1009.0 |
| 20260504211446 | 81 | 142 | 0.0 | 0.0 | 0.00 | 0.00 | 0.00 | 71 | 1009.0 |
| 20260504210946 | 81 | 142 | 0.0 | 0.0 | 0.00 | 0.00 | 0.00 | 72 | 1009.0 |
| 20260504210446 | 80 | 142 | 0.0 | 0.0 | 0.00 | 0.00 | 0.00 | 73 | 1009.0 |
| 20260504205947 | 80 | 142 | 0.0 | 0.0 | 0.00 | 0.00 | 0.00 | 75 | 1009.0 |
| 20260504205447 | 80 | 142 | 0.0 | 0.0 | 0.00 | 0.00 | 0.00 | 74 | 1009.0 |
| 20260504204947 | 81 | 142 | 0.0 | 0.0 | 0.00 | 0.00 | 0.00 | 74 | 1009.0 |
| 20260504204447 | 81 | 142 | 0.0 | 0.0 | 0.00 | 0.00 | 0.00 | 72 | 1009.0 |
| 20260504203947 | 81 | 142 | 0.0 | 0.0 | 0.00 | 0.00 | 0.00 | 72 | 1009.0 |
| 20260504203446 | 81 | 142 | 0.0 | 0.0 | 0.00 | 0.00 | 0.00 | 72 | 1009.0 |
| 20260504202948 | 81 | 142 | 0.0 | 0.0 | 0.00 | 0.00 | 0.00 | 72 | 1009.0 |
| 20260504202446 | 81 | 142 | 0.0 | 0.0 | 0.00 | 0.00 | 0.00 | 72 | 1009.0 |
| 20260504201954 | 81 | 142 | 0.0 | 1.0 | 0.00 | 0.00 | 0.00 | 72 | 1009.0 |
| 20260504201446 | 81 | 142 | 0.0 | 0.0 | 0.00 | 0.00 | 0.00 | 72 | 1009.0 |
| 20260504200946 | 81 | 142 | 0.0 | 0.0 | 0.00 | 0.00 | 0.00 | 71 | 1009.0 |
| 20260504200446 | 82 | 142 | 0.0 | 0.0 | 0.00 | 0.00 | 0.00 | 71 | 1010.0 |
| 20260504195946 | 82 | 142 | 0.0 | 0.0 | 0.00 | 0.00 | 0.00 | 71 | 1010.0 |
| 20260504195449 | 81 | 142 | 1.0 | 1.0 | 0.00 | 0.00 | 0.00 | 69 | 1009.0 |
| 20260504194946 | 81 | 141 | 0.0 | 0.0 | 0.00 | 0.00 | 0.00 | 70 | 1009.0 |
| 20260504194447 | 82 | 141 | 0.0 | 0.0 | 0.00 | 0.00 | 0.00 | 70 | 1009.0 |
| 20260504193946 | 81 | 141 | 0.0 | 1.0 | 0.00 | 0.00 | 0.00 | 70 | 1009.0 |
| 20260504193447 | 81 | 141 | 0.0 | 0.0 | 0.00 | 0.00 | 0.00 | 70 | 1009.0 |
| 20260504192946 | 81 | 142 | 1.0 | 1.0 | 0.00 | 0.00 | 0.00 | 70 | 1009.0 |
| 20260504192447 | 81 | 142 | 0.0 | 0.0 | 0.00 | 0.00 | 0.00 | 70 | 1010.0 |
| 20260504191946 | 81 | 142 | 1.0 | 2.0 | 0.00 | 0.00 | 0.00 | 71 | 1010.0 |
| 20260504191446 | 82 | 141 | 1.0 | 2.0 | 0.00 | 0.00 | 0.00 | 70 | 1010.0 |
| 20260504190952 | 82 | 122 | 1.0 | 1.0 | 0.00 | 0.00 | 0.00 | 70 | 1010.0 |
| 20260504190447 | 82 | 62 | 1.0 | 2.0 | 0.00 | 0.00 | 0.00 | 69 | 1010.0 |
| 20260504185946 | 82 | 61 | 1.0 | 1.0 | 0.00 | 0.00 | 0.00 | 69 | 1010.0 |
| 20260504185446 | 82 | 57 | 1.0 | 1.0 | 0.00 | 0.00 | 0.00 | 69 | 1010.0 |
| 20260504184946 | 82 | 160 | 0.0 | 0.0 | 0.00 | 0.00 | 0.00 | 68 | 1010.0 |
| 20260504184448 | 82 | 160 | 0.0 | 0.0 | 0.00 | 0.00 | 0.00 | 68 | 1010.0 |
| 20260504183947 | 82 | 160 | 0.0 | 1.0 | 0.00 | 0.00 | 0.00 | 69 | 1010.0 |
| 20260504183446 | 82 | 160 | 0.0 | 1.0 | 0.00 | 0.00 | 0.00 | 69 | 1010.0 |
| 20260504182950 | 82 | 160 | 0.0 | 1.0 | 0.00 | 0.00 | 0.00 | 69 | 1010.0 |
| 20260504182446 | 82 | 168 | 1.0 | 1.0 | 0.00 | 0.00 | 0.00 | 69 | 1010.0 |
| 20260504181947 | 82 | 183 | 3.0 | 3.0 | 0.00 | 0.00 | 0.00 | 69 | 1010.0 |
| 20260504181446 | 82 | 186 | 3.0 | 3.0 | 0.00 | 0.00 | 0.00 | 69 | 1010.0 |
| 20260504180947 | 82 | 179 | 2.0 | 2.0 | 0.00 | 0.00 | 0.00 | 69 | 1010.0 |
| 20260504180446 | 82 | 181 | 2.0 | 3.0 | 0.00 | 0.00 | 0.00 | 69 | 1010.0 |
| 20260504175947 | 82 | 192 | 0.0 | 0.0 | 0.00 | 0.00 | 0.00 | 68 | 1010.0 |
| 20260504175446 | 82 | 167 | 1.0 | 1.0 | 0.00 | 0.00 | 0.00 | 69 | 1010.0 |
| 20260504174948 | 82 | 182 | 4.0 | 4.0 | 0.00 | 0.00 | 0.00 | 69 | 1010.0 |
| 20260504174446 | 83 | 221 | 1.0 | 2.0 | 0.00 | 0.00 | 0.00 | 68 | 1010.0 |
| 20260504173947 | 83 | 210 | 0.0 | 1.0 | 0.00 | 0.00 | 0.00 | 68 | 1010.0 |
| 20260504173446 | 82 | 203 | 1.0 | 1.0 | 0.00 | 0.00 | 0.00 | 68 | 1011.0 |
| 20260504172948 | 83 | 167 | 3.0 | 3.0 | 0.00 | 0.00 | 0.00 | 68 | 1011.0 |
| 20260504172446 | 83 | 167 | 3.0 | 3.0 | 0.00 | 0.00 | 0.00 | 68 | 1010.0 |
| 20260504171952 | 83 | 187 | 3.0 | 3.0 | 0.00 | 0.00 | 0.00 | 67 | 1010.0 |
| 20260504171447 | 83 | 179 | 2.0 | 3.0 | 0.00 | 0.00 | 0.00 | 67 | 1010.0 |
| 20260504170947 | 83 | 196 | 1.0 | 2.0 | 0.00 | 0.00 | 0.00 | 67 | 1010.0 |
| 20260504170447 | 83 | 202 | 2.0 | 3.0 | 0.00 | 0.00 | 0.00 | 67 | 1010.0 |
| 20260504160447 | 84 | 183 | 1.0 | 2.0 | 0.00 | 0.00 | 0.00 | 67 | 1010.0 |
| 20260504150949 | 83 | 32 | 2.0 | 2.0 | 0.00 | 0.00 | 0.00 | 69 | 1010.0 |
| 20260504150446 | 83 | 139 | 0.0 | 1.0 | 0.00 | 0.00 | 0.00 | 70 | 1010.0 |
| 20260504140946 | 85 | 124 | 3.0 | 3.0 | 0.00 | 0.00 | 0.00 | 62 | 1008.0 |
| 20260504140447 | 86 | 118 | 4.0 | 4.0 | 0.00 | 0.00 | 0.00 | 60 | 1008.0 |
| 20260504130446 | 85 | 282 | 2.0 | 2.0 | 0.00 | 0.00 | 0.00 | 60 | 1007.0 |
| 20260504110446 | 88 | 332 | 4.0 | 4.0 | 0.00 | 0.00 | 0.00 | 57 | 1006.0 |
| 20260504100447 | 87 | 259 | 2.0 | 2.0 | 0.00 | 0.00 | 0.00 | 51 | 1006.0 |